Huvudsida
METAR-TAF:

METAR-TAF

Flygplatser :

Mesquite, Texas, USA

latitud: 32-44-49N, longitud: 096-31-49W, höjd: 136 m

Aktuellt väderrapport

Denna rapport gjordes för 14 minuter sedan, klockan 11:35 UTC
Vind 9 kt från nord/nordost i byarna ända upp till 18 kt
Temperatur 4°C
Fuktighet 38%
Tryck 1033 hPa
Sikt: 16.1 km
Klar himmel

METAR: KHQZ 191135Z AUTO 02009G18KT 10SM CLR 04/M09 A3050 RMK AO1 T00411088

Tid: 05:49 (11:49 UTC)


TAF: saknas

Aktuella väderrapporter och prognoser från 4000 flygplatser (METAR- och TAF-rapporter).

De tillgängliga stationerna syns som gula och röda prickar på kartan.

För musen över prickarna för att se namnen på stationerna.

Klicka sedan för att få väderrapporter och prognoser.

För att ändra kartan: Klicka på de gröna knapparna med ett svart kors på för att zooma in; den gröna knappen med ett streck på för att zooma ut; eller på de gröna pilarna för angränsande kartor.


METAR-TAF: